Regional Weather Roundup
Issued by NWS Sterling, VA

Home | Current Version | Previous Version | Graphics & Text | Print | Product List | Glossary On
Versions: 1 2 3 4 5 6 7 8 9 10 11 12 13 14 15 16 17 18 19 20 21 22 23 24 25 26
000
ASUS41 KLWX 270310
RWRLWX

REGIONAL WEATHER ROUNDUP
NATIONAL WEATHER SERVICE BALTIMORE MD/WASHINGTON DC
1100 PM EDT MON SEP 26 2016

Note: "FAIR" indicates few or no clouds below 12,000 feet
with no significant weather and/or obstructions to visibility.
 TC=TEMPERATURE CELSIUS

 * =Non NWS site. Station does not report precipitation (e.g. rain,
    snow, etc.), thunder, or fog.

DCZ001-MDZ009-015-VAZ040>042-051-053>054-270400-
WASHINGTON METRO

CITY           SKY/WX    TMP DP  RH WIND       PRES   REMARKS
WASHINGTON NAT CLOUDY    66  64  93 SW8       30.00S
DULLES         LGT RAIN  64  62  93 S8        29.99F
ANDREWS AFB    CLOUDY    64  61  92 S6        29.98S
FT BELVOIR     CLOUDY    65  62  91 SE2       29.99S
QUANTICO       CLOUDY    67  63  87 SW7       30.00F
COLLEGE PARK*  CLOUDY    63  61  94 CALM      29.99S
LEESBURG*      CLOUDY    64  64 100 S8G17     29.99F
MANASSAS*      CLOUDY    64  64 100 S3        29.99F
GAITHERSBURG*  CLOUDY    64  57  77 S7        30.02F

$$

MDZ006>007-011-014-270400-
BALTIMORE METRO

CITY           SKY/WX    TMP DP  RH WIND       PRES   REMARKS
BWI AIRPORT    CLOUDY    64  60  87 CALM      29.99S
MD SCIENCE CTR   N/A     68  58  70 MISG      29.99S
ANNAPOLIS      LGT RAIN  68  63  84 S8        29.98F
FORT MEADE*    MOCLDY    61  59  94 CALM      30.01R

$$

MDZ012-015-019>023-270400-
MARYLAND EASTERN SHORE

CITY           SKY/WX    TMP DP  RH WIND       PRES   REMARKS
OCEAN CITY     CLOUDY    75  67  76 SW8G18    30.02F
SALISBURY      CLOUDY    67  64  90 CALM      30.02F
BAY BRIDGE AP* LGT RAIN  66  64  94 MISG      29.97F
CAMBRIDGE*     CLOUDY    63  63 100 SE3       30.00F

$$

MDZ017>025-270400-
SOUTHERN MARYLAND

CITY           SKY/WX    TMP DP  RH WIND       PRES   REMARKS
PATUXENT RIVER LGT RAIN  67  62  84 S5        30.00F
ST INIGOES     LGT RAIN  71  62  73 S6        30.00F
LEONARDTOWN*     N/A     64  61  88 S3        30.01F

$$

MDZ003>005-270400-
NORTH CENTRAL MARYLAND

CITY           SKY/WX    TMP DP  RH WIND       PRES   REMARKS
FREDERICK*     NOT AVBL
HAGERSTOWN APT CLOUDY    65  61  87 SW6       29.96S

$$

MDZ501>502-270400-
WESTERN MARYLAND

CITY           SKY/WX    TMP DP  RH WIND       PRES   REMARKS
OAKLAND*       CLOUDY    55  55 100 W7        30.05S FOG
CUMBERLAND*    MOCLDY    66  66 100 NE3       30.01S

$$

VAZ025>031-270400-
SHENANDOAH VALLEY

CITY           SKY/WX    TMP DP  RH WIND       PRES   REMARKS
WINCHESTER*    PTCLDY    64  63  94 S3        29.97S
FRONT ROYAL*   MOCLDY    64  63  94 S3        29.96F
LURAY*         CLOUDY   N/A N/A N/A SW8       29.99S
NEW MARKET*    CLOUDY   N/A N/A N/A SW5       29.99S
STAUNTON*      CLOUDY    63  62  95 CALM      30.03F
WAYNESBORO*    FAIR      63  61  96 CALM      30.01F

$$

WVZ021-048>050-054>055-270400-
EASTERN WEST VIRGINIA PANHANDLE

CITY           SKY/WX    TMP DP  RH WIND       PRES   REMARKS
MARTINSBURG    CLOUDY    64  62  93 CALM      29.96F
PETERSBURG*    CLOUDY    68  66  93 CALM      29.98R

$$

VAZ036>039-050-270400-
CENTRAL FOOTHILLS

CITY           SKY/WX    TMP DP  RH WIND       PRES   REMARKS
CHARLOTTESVILL CLOUDY    66  63  90 S6        30.00F
CULPEPER*      CLOUDY    65  65  98 CALM      30.01F
ORANGE*          N/A     64  64 100 CALM      30.02F
GORDONSVILLE*  NOT AVBL
WARRENTON*     CLOUDY    65  60  84 S3        29.99F

$$

VAZ055>057-270400-
NORTH AND CENTRAL PIEDMONT

CITY           SKY/WX    TMP DP  RH WIND       PRES   REMARKS
FREDERICKSBRG* CLOUDY    65  65 100 S6        29.99F
STAFFORD*      CLOUDY    64  64 100 CALM      30.04S

$$

NCZ024-NYZ072-PAZ021-071-VAZ022-071-270400-
OTHER REGIONAL OBSERVATIONS

CITY           SKY/WX    TMP DP  RH WIND       PRES   REMARKS
NEW YORK CITY  CLOUDY    68  56  65 VRB3      30.04F
PHILADELPHIA   CLOUDY    69  58  67 S9        30.00F
PITTSBURGH     CLOUDY    58  56  93 W3        30.00S
ROANOKE        CLOUDY    67  66  97 S6        30.05S FOG
RICHMOND       CLOUDY    67  63  87 S9        30.01F
RALEIGH        CLOUDY    72  67  84 NW6       30.05S

$$

ANZ530>537-270400-
MARINE OBSERVATIONS

STATION/POSITION TIME  TEMP    WIND        PRES
                       AIR SEA DIR/SP/G
                 (UTC) (F)     (DEG/KT/KT) (MB)
THOMAS PT LIGHT  0300   70 74  190/ 24/ 27 1016.0F
BALT KEY BRIDGE  0248   69     180/ 14/ 18 1014.8F
COVE POINT       0242   69     190/ 13/ 14 1016.3F
LEWISETTA        0242   70 74  210/  7/  8 1015.7F
SOLOMONS ISLAND  0248          160/  9/ 12   N/A
PINEY POINT      0248          190/  8/ 10   N/A

$$





USA.gov is the U.S. government's official web portal to all federal, state and local government web resources and services.